Quincy, IL

11:17 AM CST on November 21, 2019 (GMT -0600)
Quincy Regional-Baldwin

Weather History for KUIN - September, 2019

Change the Weather History Date:

Friday, September 27, 2019

  Actual Average Record
Temperature  
Mean Temperature 76 °F 62 °F  
Max Temperature 90 °F 72 °F 92 °F (1929)
Min Temperature 61 °F 51 °F 33 °F (1942)
Degree Days  
Heating Degree Days 0 6  
Month to date heating degree days 2 65  
Since 1 July heating degree days 4 70  
Cooling Degree Days 10 2  
Month to date cooling degree days 229 117  
Year to date cooling degree days 1286 1070  
Growing Degree Days 26 (Base 50)    
Moisture  
Dew Point 62 °F    
Average Humidity 71    
Maximum Humidity 96    
Minimum Humidity 51    
Precipitation  
Precipitation 0.81 in 0.12 in 2.24 in (1923)
Month to date precipitation 3.46 2.99  
Year to date precipitation 34.49 28.74  
Sea Level Pressure  
Sea Level Pressure 29.73 in    
Wind  
Wind Speed 11 mph ()    
Max Wind Speed 46 mph    
Max Gust Speed 60 mph    
Visibility 9.0 miles    
Events Rain , Thunderstorm    
T = Trace of Precipitation, MM = Missing Value Source: Averaged Metar Reports

Daily Weather History Graph

Daily Weather History Graph

Search for Another Location

Airport or City:

Astronomy

Sep. 27, 2019 Rise Set
Actual Time 6:56 AM CDT 6:53 PM CDT
Civil Twilight 6:29 AM CDT 7:20 PM CDT
Nautical Twilight 5:58 AM CDT 7:52 PM CDT
Astronomical Twilight 5:26 AM CDT 8:24 PM CDT
Moon 5:18 AM CDT (9/27) 6:44 PM CDT (9/27)
Length of Visible Light 12h 50m
Length of Day
11h 56m
Waning Crescent, 2% of the Moon is Illuminated
Sep 27
Waning Crescent
Sep 28
New
Oct 5
First Quarter
Oct 13
Full
Oct 21
Last Quarter

Hourly Weather History & Observations

Time (CDT) Temp. Heat Index Dew Point Humidity Pressure Visibility Wind Dir Wind Speed Gust Speed Precip Events Conditions
12:54 AM 62.1 °F - 48.0 °F 60% 29.85 in 10.0 mi SSE 6.9 mph - N/A   Overcast
1:54 AM 62.1 °F - 48.0 °F 60% 29.83 in 10.0 mi SSE 10.4 mph - N/A   Overcast
2:54 AM 63.0 °F - 48.0 °F 58% 29.81 in 10.0 mi SSE 11.5 mph - N/A   Overcast
3:54 AM 63.0 °F - 48.9 °F 60% 29.80 in 10.0 mi SSE 10.4 mph - N/A   Overcast
4:54 AM 64.0 °F - 51.1 °F 63% 29.78 in 10.0 mi SSE 11.5 mph - N/A   Overcast
5:54 AM 64.9 °F - 55.0 °F 70% 29.77 in 10.0 mi South 12.7 mph - N/A   Mostly Cloudy
6:54 AM 66.0 °F - 57.0 °F 73% 29.75 in 10.0 mi South 11.5 mph - N/A   Mostly Cloudy
7:54 AM 66.0 °F - 57.9 °F 75% 29.73 in 10.0 mi South 15.0 mph - N/A   Scattered Clouds
8:54 AM 66.9 °F - 60.1 °F 79% 29.72 in 10.0 mi South 16.1 mph 25.3 mph 0.00 in   Overcast
9:02 AM 66.9 °F - 60.1 °F 79% 29.73 in 10.0 mi South 12.7 mph - N/A Thunderstorm Thunderstorm
9:50 AM 66.2 °F - 62.6 °F 88% 29.72 in 10.0 mi South 12.7 mph 20.7 mph 0.03 in   Mostly Cloudy
9:51 AM 66.0 °F - 62.1 °F 87% 29.71 in 10.0 mi South 11.5 mph 20.7 mph 0.03 in   Mostly Cloudy
10:54 AM 73.9 °F - 66.0 °F 76% 29.68 in 10.0 mi South 17.3 mph 25.3 mph N/A   Partly Cloudy
11:54 AM 82.9 °F 85.4 °F 66.9 °F 58% 29.66 in 10.0 mi SSW 17.3 mph 36.8 mph 0.00 in Rain Light Rain
12:54 PM 82.9 °F 85.8 °F 68.0 °F 60% 29.65 in 10.0 mi SSW 12.7 mph 27.6 mph 0.00 in Rain Light Rain
1:54 PM 86.0 °F 88.8 °F 66.9 °F 53% 29.63 in 10.0 mi SW 18.4 mph 31.1 mph 0.00 in   Partly Cloudy
2:54 PM 88.0 °F 91.4 °F 68.0 °F 51% 29.62 in 10.0 mi SSW 17.3 mph 33.4 mph N/A   Mostly Cloudy
3:54 PM 88.0 °F 91.4 °F 68.0 °F 51% 29.62 in 10.0 mi SSW 19.6 mph 29.9 mph 0.00 in Rain Light Rain
4:54 PM 86.0 °F 90.1 °F 69.1 °F 57% 29.62 in 10.0 mi SSW 15.0 mph - 0.00 in Rain Light Rain
5:54 PM 86.0 °F 89.4 °F 68.0 °F 55% 29.63 in 10.0 mi SSW 11.5 mph - 0.00 in   Clear
6:54 PM 82.0 °F 84.9 °F 68.0 °F 62% 29.62 in 10.0 mi South 8.1 mph - N/A   Clear
7:54 PM 82.0 °F 84.9 °F 68.0 °F 62% 29.63 in 10.0 mi South 8.1 mph - N/A   Overcast
8:03 PM 81.0 °F 83.8 °F 68.0 °F 65% 29.65 in 10.0 mi South 8.1 mph - N/A Thunderstorm Overcast
8:18 PM 82.0 °F 84.9 °F 68.0 °F 62% 29.65 in 10.0 mi South 10.4 mph - N/A   Overcast
8:35 PM 81.0 °F 83.3 °F 66.9 °F 62% 29.65 in 10.0 mi South 9.2 mph - N/A Thunderstorm Overcast
8:50 PM 82.4 °F 84.6 °F 66.2 °F 58% 29.66 in 10.0 mi South 11.5 mph - N/A   Overcast
8:54 PM 82.0 °F 84.5 °F 66.9 °F 60% 29.65 in 10.0 mi SSW 5.8 mph - N/A   Overcast
9:54 PM 77.0 °F - 66.0 °F 69% 29.71 in 10.0 mi Calm Calm - N/A   Overcast
10:03 PM 71.1 °F - 62.1 °F 73% 29.78 in 10.0 mi NNW 42.6 mph 59.8 mph 0.00 in Rain , Thunderstorm Light Rain
10:16 PM 69.1 °F - 62.1 °F 78% 29.83 in 10.0 mi NNW 23.0 mph 41.4 mph 0.00 in Rain , Thunderstorm Light Thunderstorms and Rain
10:24 PM 66.9 °F - 64.0 °F 90% 29.88 in 1.8 mi NW 21.9 mph 38.0 mph 0.13 in Rain , Thunderstorm Heavy Thunderstorms and Rain
10:36 PM 66.9 °F - 64.0 °F 90% 29.85 in 0.8 mi WNW 13.8 mph 36.8 mph 0.44 in Rain , Thunderstorm Heavy Thunderstorms and Rain
10:54 PM 66.0 °F - 64.9 °F 96% 29.81 in 2.5 mi South 9.2 mph - 0.57 in Rain , Thunderstorm Thunderstorms and Rain
10:58 PM 66.0 °F - 64.0 °F 93% 29.82 in 6.0 mi South 4.6 mph - 0.01 in Rain , Thunderstorm Rain
11:21 PM 66.9 °F - 64.0 °F 90% 29.81 in 6.0 mi NW 3.5 mph - 0.05 in Rain , Thunderstorm Light Thunderstorms and Rain
11:36 PM 66.9 °F - 64.0 °F 90% 29.80 in 10.0 mi SSE 4.6 mph - 0.07 in Rain , Thunderstorm Light Rain
11:51 PM 66.2 °F - 62.6 °F 88% 29.79 in 7.0 mi South 6.9 mph - 0.14 in Rain , Thunderstorm Light Thunderstorms and Rain
11:54 PM 66.9 °F - 63.0 °F 87% 29.76 in 7.0 mi SSE 6.9 mph - 0.14 in Rain , Thunderstorm Light Thunderstorms and Rain